Content
SEND FEEDBACK

Daily
Averages
Monthly
Summary
United States of America

NEW BULLARDS BAR RESERVOIR, CALIFORNIA


Home > North America > United States > California
Elevation: 2199 feet     Latitude: 39 25N     Longitude: 121 09W

WEATHER
 
SELECT A DAY
Number of Records: 62,722;   Date Range: 9/21/11 - 9/21/14
 
SHARE

PRINT THIS DATA

[ ← Previous Day ]
WEATHER ALMANAC - JANUARY 31, 2013
[ Next Day → ]
[ °C ]   °F
Weather ElementAverageHighLow
Temperature50.3 °F59 °F (1:15 pm)42.8 °F (1:55 am)
Dewpoint35.9 °F42.8 °F (5:35 pm)30.2 °F (9:35 am)
Humidity58.7 %76 % (5:55 pm)39 % (1:35 pm)
Barometer30.26 in30.30 in (12:35 am)30.23 in (2:55 pm)
Wind Speed2 mph6.9 mph (7:35 pm)
Weather ElementAverage
Visibility10 mi
Wind DirectionENE (74.5 °)

Weather ElementTotal
Precipitation---
Heating Degree Days14.1 (Base 65)
Growing Degree Days0.9 (Base 50)
Averaged from 69 records on January 31, 2013
WEATHER CONDITIONS BREAKOUT
WIND DIRECTION BREAKOUT
WEATHER BY HOUR - JANUARY 31, 2013
[ °C ]   °F
Local TimeTemperatureDewpointHumidityBarometerVisibilityWind DirectionWind SpeedGust SpeedPrecipitationEventsConditions
12:35 AM46.4 °F35.6 °F66 %30.30 in10.0 miCalmClear
12:55 AM44.6 °F35.6 °F71 %30.30 in10.0 miCalmClear
1:15 AM44.6 °F33.8 °F66 %30.30 in10.0 miCalmClear
1:35 AM44.6 °F32.0 °F61 %30.30 in10.0 miCalmClear
1:55 AM42.8 °F33.8 °F70 %30.29 in10.0 miCalmClear
2:15 AM46.4 °F33.8 °F62 %30.29 in10.0 miEast (90°)4.6 mphClear
2:35 AM46.4 °F33.8 °F62 %30.29 in10.0 miCalmClear
2:55 AM42.8 °F33.8 °F70 %30.28 in10.0 miCalmClear
3:15 AM44.6 °F32.0 °F61 %30.27 in10.0 miNE (50°)3.5 mphClear
3:35 AM44.6 °F32.0 °F61 %30.27 in10.0 miNE (40°)3.5 mphClear
3:55 AM44.6 °F32.0 °F61 %30.26 in10.0 miCalmClear
4:15 AM46.4 °F32.0 °F57 %30.26 in10.0 miCalmClear
4:35 AM48.2 °F32.0 °F54 %30.26 in10.0 miWNW (300°)3.5 mphClear
4:55 AM48.2 °F32.0 °F54 %30.27 in10.0 miWNW (290°)3.5 mphClear
5:15 AM48.2 °F32.0 °F54 %30.26 in10.0 miCalmClear
5:55 AM44.6 °F32.0 °F61 %30.27 in10.0 miCalmClear
6:15 AM44.6 °F32.0 °F61 %30.27 in10.0 miCalmClear
6:35 AM44.6 °F32.0 °F61 %30.27 in10.0 miCalmClear
6:55 AM44.6 °F32.0 °F61 %30.28 in10.0 miCalmClear
7:15 AM44.6 °F32.0 °F61 %30.28 in10.0 miCalmClear
7:35 AM42.8 °F32.0 °F66 %30.28 in10.0 miCalmClear
7:55 AM42.8 °F32.0 °F66 %30.29 in10.0 miCalmClear
8:15 AM44.6 °F32.0 °F61 %30.29 in10.0 miCalmClear
8:35 AM44.6 °F32.0 °F61 %30.29 in10.0 miCalmClear
8:55 AM48.2 °F32.0 °F54 %30.30 in10.0 miCalmClear
9:15 AM50.0 °F32.0 °F50 %30.30 in10.0 miCalmClear
9:35 AM51.8 °F30.2 °F44 %30.30 in10.0 miCalmClear
9:55 AM51.8 °F32.0 °F47 %30.30 in10.0 miCalmClear
10:15 AM53.6 °F32.0 °F44 %30.30 in10.0 miCalmClear
10:35 AM53.6 °F32.0 °F44 %30.30 in10.0 miCalmClear
10:55 AM53.6 °F33.8 °F47 %30.29 in10.0 miCalmClear
11:15 AM55.4 °F32.0 °F41 %30.29 in10.0 miCalmClear
11:35 AM55.4 °F35.6 °F47 %30.28 in10.0 miWSW (250°)5.8 mphClear
12:15 PM57.2 °F37.4 °F48 %30.27 in10.0 miWSW (240°)4.6 mphClear
12:35 PM57.2 °F35.6 °F44 %30.26 in10.0 miCalmClear
12:55 PM57.2 °F35.6 °F44 %30.26 in10.0 miSW (220°)3.5 mphClear
1:15 PM59.0 °F35.6 °F42 %30.25 in10.0 miCalmClear
1:35 PM59.0 °F33.8 °F39 %30.24 in10.0 miCalmClear
1:55 PM59.0 °F35.6 °F42 %30.24 in10.0 miSW (230°)5.8 mphClear
2:15 PM59.0 °F37.4 °F45 %30.24 in10.0 miSW (230°)4.6 mphClear
2:35 PM57.2 °F39.2 °F51 %30.24 in10.0 miWNW (290°)5.8 mphClear
2:55 PM57.2 °F41.0 °F55 %30.23 in10.0 miWNW (290°)3.5 mphClear
3:15 PM57.2 °F41.0 °F55 %30.23 in10.0 miWest (270°)5.8 mphClear
3:35 PM57.2 °F41.0 °F55 %30.23 in10.0 miWest (280°)5.8 mphClear
3:55 PM57.2 °F41.0 °F55 %30.23 in10.0 miWest (270°)5.8 mphClear
4:15 PM55.4 °F41.0 °F58 %30.23 in10.0 miNW (310°)5.8 mphClear
4:35 PM55.4 °F41.0 °F58 %30.23 in10.0 miCalmClear
4:55 PM55.4 °F41.0 °F58 %30.23 in10.0 miWNW (290°)3.5 mphClear
5:15 PM53.6 °F41.0 °F62 %30.24 in10.0 miCalmClear
5:35 PM51.8 °F42.8 °F71 %30.23 in10.0 miCalmClear
5:55 PM50.0 °F42.8 °F76 %30.24 in10.0 miCalmClear
6:15 PM50.0 °F41.0 °F71 %30.24 in10.0 miCalmClear
6:35 PM50.0 °F41.0 °F71 %30.24 in10.0 miCalmClear
6:55 PM48.2 °F41.0 °F76 %30.24 in10.0 miCalmClear
7:15 PM50.0 °F41.0 °F71 %30.23 in10.0 miEast (100°)5.8 mphClear
7:35 PM50.0 °F41.0 °F71 %30.23 in10.0 miEast (90°)6.9 mphClear
7:55 PM50.0 °F41.0 °F71 %30.24 in10.0 miEast (90°)5.8 mphClear
8:15 PM50.0 °F41.0 °F71 %30.24 in10.0 miEast (90°)4.6 mphClear
8:35 PM48.2 °F39.2 °F71 %30.24 in10.0 miCalmClear
8:55 PM50.0 °F39.2 °F66 %30.24 in10.0 miEast (100°)4.6 mphClear
9:15 PM50.0 °F39.2 °F66 %30.23 in10.0 miEast (100°)4.6 mphClear
9:35 PM50.0 °F39.2 °F66 %30.23 in10.0 miEast (100°)4.6 mphClear
9:55 PM51.8 °F37.4 °F58 %30.23 in10.0 miESE (110°)4.6 mphClear
10:15 PM51.8 °F37.4 °F58 %30.23 in10.0 miEast (100°)4.6 mphClear
10:35 PM51.8 °F37.4 °F58 %30.23 in10.0 miESE (110°)3.5 mphClear
10:55 PM48.2 °F37.4 °F66 %30.23 in10.0 miCalmClear
11:15 PM48.2 °F35.6 °F62 %30.23 in10.0 miEast (100°)4.6 mphClear
11:35 PM50.0 °F35.6 °F58 %30.23 in10.0 miCalm
11:55 PM50.0 °F33.8 °F54 %30.23 in10.0 miESE (110°)4.6 mphClear
Hourly data recorded from KGOO, located miles away from New Bullards Bar Reservoir, California







STORIES FROM OUR PARTNERS